Location: Proctor
(47.8934°N, 114.3048°W)
Time: 07:29:06
(UTC+00:00)

POLYITAN 1 - Pass Details

Date: 01 July 2022
Orbit: 586 x 605 km, 98.0° (Epoch: 15 August)

Event Time Altitude Azimuth Distance (km) Brightness Sun altitude
Rises 10:57:00 0° 358° (N) 2,859 ? -6.5°
Reaches altitude 10° 10:59:57 10° 336° (NNW) 1,955 ? -6.2°
Maximum altitude 11:02:23 15° 300° (WNW) 1,638 ? -5.9°
Drops below altitude 10° 11:04:49 10° 265° (W) 1,952 ? -5.6°
Enters shadow 11:06:29 - 250° (WSW) 2,424 ? -5.4°
